User: anonymous
Location: Unspecified
(0.0000°N, 0.0000°E)
Time: 19:51:04
(UTC+00:00)
Language:

S-56A Canister/Altair - Orbit

View from above orbital plane
View from above orbital plane
View from above satellite
View from above satellite

Ground track
Ground track

The orbit data is extracted from the following two-line orbital elements,

1 00082U 61004B   14202.24580959 -.00000142  00000-0 -67669-4 0  7054
2 00082 038.8537 266.2592 1176735 111.4063 261.6111 12.25641456542953
Epoch (UTC): 21 July 2014 05:53:57
Eccentricity: 0.1176735
inclination: 38.8537°
perigee height: 633 km
apogee height: 2503 km
right ascension of ascending node: 266.2592°
argument of perigee: 111.4063°
revolutions per day: 12.25641456
mean anomaly at epoch: 261.6111°
orbit number at epoch: 54295

The dashed part of the orbit path shows where the satellite is in the earth's shadow,  

DLR